KWIWEYAU3 Weather Reports


Display with metric or nautical units.
time (UTC)temp
F
wind
direction
speed
MPH
gust
MPH
rain 1hr
in
rain 24hr
in
rain mn
in
humidity
%
barometer
mb
20260505101516 36 0.0 0.0 0.00 0.00 0.00 73 1004.9
20260505100517 36 0.0 0.0 0.00 0.00 0.00 73 1004.8
20260505095537 36 0.0 0.0 0.00 0.00 0.00 72 1004.8
20260505094516 36 0.0 0.0 0.00 0.00 0.00 72 1004.7
20260505093516 36 0.0 0.0 0.00 0.00 0.00 73 1004.5
20260505092517 36 0.0 0.0 0.00 0.00 0.00 73 1004.4
20260505091518 36 0.0 0.0 0.00 0.00 0.00 71 1004.3
20260505090518 36 0.0 0.0 0.00 0.00 0.00 70 1003.9
20260505085516 37 0.0 0.0 0.00 0.00 0.00 69 1003.8
20260505084516 37 0.0 0.0 0.00 0.00 0.00 66 1003.6
20260505083517 38 0.0 0.0 0.00 0.00 0.00 64 1003.4
20260505082536 39 0.0 0.0 0.00 0.00 0.00 61 1003.4
20260505081516 39 0.0 0.0 0.00 0.00 0.00 59 1003.5
20260505080517 40 0.0 0.0 0.00 0.00 0.00 58 1003.5
20260505075517 41 0.0 0.0 0.00 0.00 0.00 57 1003.4
20260505074517 42 0.0 0.0 0.00 0.00 0.00 54 1003.4
20260505073516 43 0.0 0.0 0.00 0.00 0.00 52 1003.5
20260505072536 44 0.0 0.0 0.00 0.00 0.00 51 1003.7
20260505071516 44 0.0 0.0 0.00 0.00 0.00 51 1003.7
20260505070538 45 0.0 0.0 0.00 0.00 0.00 50 1003.7
20260505065516 45 0.0 0.0 0.00 0.00 0.00 50 1003.7
20260505064537 45 0.0 11.0 0.00 0.00 0.00 49 1003.8
20260505063516 46 0.0 0.0 0.00 0.00 0.00 52 1003.7
20260505062516 46 0.0 0.0 0.00 0.00 0.00 51 1003.5
20260505061516 47 0.0 3.0 0.00 0.00 0.00 50 1003.5
20260505060517 47 0.0 3.0 0.00 0.00 0.00 50 1003.5
20260505055517 47 0.0 0.0 0.00 0.00 0.00 51 1003.3
20260505054517 47 0.0 4.0 0.00 0.00 0.00 51 1003.4
20260505053517 48 0.0 0.0 0.00 0.00 0.00 51 1003.3
20260505052516 48 0.0 7.0 0.00 0.00 0.00 50 1003.1
20260505051537 48 0.0 8.0 0.00 0.00 0.00 49 1002.9
20260505050516 49 0.0 7.0 0.00 0.00 0.00 50 1002.8
20260505041515 51 0.0 5.0 0.00 0.00 0.00 45 1001.9
20260505040515 52 0.0 0.0 0.00 0.00 0.00 45 1001.6
20260505035535 52 0.0 5.0 0.00 0.00 0.00 44 1001.3
20260505034515 53 0.0 5.0 0.00 0.00 0.00 45 1001.0
20260505033536 53 0 1.0 16.0 0.00 0.00 0.00 44 1000.7
20260505032515 54 23 4.0 23.0 0.00 0.00 0.00 46 1000.3
20260505031515 54 0 1.0 17.0 0.00 0.00 0.00 46 1000.0
20260505030515 55 0.0 13.0 0.00 0.00 0.00 46 999.8
20260505025515 56 0.0 1.0 0.00 0.00 0.00 45 999.5
20260505024516 56 0 1.0 16.0 0.00 0.00 0.00 44 999.5
20260505023515 57 0.0 12.0 0.00 0.00 0.00 43 999.3
20260505022515 57 0.0 7.0 0.00 0.00 0.00 44 999.1
20260505021516 57 0 1.0 15.0 0.00 0.00 0.00 43 998.9
20260505020515 57 0.0 3.0 0.00 0.00 0.00 42 998.6
20260505015515 58 0.0 3.0 0.00 0.00 0.00 41 998.4
20260505014656 58 0.0 9.0 0.00 0.00 0.00 41 998.2
20260505013516 59 0.0 4.0 0.00 0.00 0.00 40 998.1
20260505012515 59 0.0 12.0 0.00 0.00 0.00 39 997.8
20260505011516 60 0.0 0.0 0.00 0.00 0.00 39 997.6
20260505010515 60 0.0 0.0 0.00 0.00 0.00 38 997.4
20260505005515 61 0.0 0.0 0.00 0.00 0.00 38 997.1
20260505004536 62 0.0 0.0 0.00 0.00 0.00 39 996.8
20260505003516 62 0.0 3.0 0.00 0.00 0.00 39 996.4
20260505002515 63 0.0 1.0 0.00 0.00 0.00 38 996.3
20260505001515 63 0.0 0.0 0.00 0.00 0.00 35 995.9
20260505000536 64 0.0 5.0 0.00 0.00 0.00 36 995.7
20260504235515 64 0.0 0.0 0.00 0.00 0.00 35 995.6
20260504234515 65 0.0 11.0 0.00 0.00 0.00 33 995.4
20260504233516 65 0.0 1.0 0.00 0.00 0.00 34 995.1
20260504232518 66 0.0 8.0 0.00 0.00 0.00 34 995.1
20260504231519 66 0.0 10.0 0.00 0.00 0.00 33 995.2
20260504230518 66 0.0 1.0 0.00 0.00 0.00 32 995.1
20260504225517 67 0.0 6.0 0.00 0.00 0.00 33 995.2
20260504224517 67 0.0 7.0 0.00 0.00 0.00 31 995.0
20260504223517 68 0 1.0 16.0 0.00 0.00 0.00 31 995.0
20260504222517 68 0.0 0.0 0.00 0.00 0.00 33 994.9
20260504221518 68 338 1.0 13.0 0.00 0.00 0.00 32 994.8
20260504220517 69 0.0 13.0 0.00 0.00 0.00 32 994.7
20260504220018 69 0.0 4.0 0.00 0.00 0.00 34 994.9
20260504215017 70 338 1.0 15.0 0.00 0.00 0.00 32 994.8
20260504214037 71 0.0 17.0 0.00 0.00 0.00 33 994.7
20260504213017 71 0.0 0.0 0.00 0.00 0.00 36 994.5
20260504212017 72 0.0 10.0 0.00 0.00 0.00 36 994.2
20260504211017 72 0.0 5.0 0.00 0.00 0.00 36 993.9
20260504210017 73 0.0 12.0 0.00 0.00 0.00 35 993.9
20260504205017 73 0.0 0.0 0.00 0.00 0.00 35 993.7
20260504204017 73 0 2.0 20.0 0.00 0.00 0.00 35 993.8
20260504203017 73 0.0 1.0 0.00 0.00 0.00 36 993.7
20260504202018 74 0.0 16.0 0.00 0.00 0.00 35 993.7
20260504201017 73 0.0 3.0 0.00 0.00 0.00 37 993.7
20260504200017 74 0 3.0 30.0 0.00 0.00 0.00 35 993.6
20260504195017 74 0.0 6.0 0.00 0.00 0.00 38 993.4
20260504194038 75 338 1.0 10.0 0.00 0.00 0.00 38 993.6
20260504193017 75 0 1.0 23.0 0.00 0.00 0.00 39 993.7
20260504192017 75 338 1.0 15.0 0.00 0.00 0.00 40 993.7
20260504191038 74 0 1.0 19.0 0.00 0.00 0.00 41 993.7
20260504190017 74 315 1.0 13.0 0.00 0.00 0.00 39 993.7
20260504185037 75 0.0 6.0 0.00 0.00 0.00 41 993.8
20260504184017 75 0 7.0 23.0 0.00 0.00 0.00 42 993.8
20260504183017 75 338 8.0 15.0 0.00 0.00 0.00 40 993.9
20260504182018 74 315 11.0 25.0 0.00 0.00 0.00 41 993.8
20260504181017 74 338 13.0 25.0 0.00 0.00 0.00 41 993.7
20260504180018 73 338 13.0 27.0 0.00 0.00 0.00 40 993.8
20260504175017 73 338 13.0 24.0 0.00 0.00 0.00 40 993.8
20260504174017 73 0 3.0 33.0 0.00 0.00 0.00 41 993.8
20260504173015 73 0.0 15.0 0.00 0.00 0.00 39 994.1
20260504172017 74 0.0 3.0 0.00 0.00 0.00 40 994.3
20260504171018 73 338 2.0 17.0 0.00 0.00 0.00 40 994.3
20260504151023 71 270 1.0 20.0 0.00 0.00 0.00 39 994.9
20260504141016 66 270 1.0 11.0 0.00 0.00 0.00 44 995.9